铱星星座 110星 (IRIDIUM 110)

导读

IRIDIUM 110(铱星110)是美国铱星通信公司运营的低轨通信卫星,属于第二代铱星星座(Iridium NEXT),于2018年5月22日发射升空。该卫星运行在近地轨道,是全球覆盖低轨卫星通信网络的组成部分,主要为全球提供语音通话、数据传输服务,在航海、航空、应急救援以及偏远地区通信领域发挥关键作用。作为铱星系统升级换代的卫星之一,它提升了原有网络通信性能与可靠性,保障了星座的持续运营能力。

Basic Information
目录编号:
43481
目录名称:
IRIDIUM 110
国际标识:
2018-047F
轨道中心:
EARTH
卫星名称:
铱星星座 110星
卫星全名:
铱星星座 110星 (IRIDIUM 110)
卫星状态:
在轨 (已飞行2947 天)
发射日期:
2018-05-22 UTC
国别 :
美国 (US)
星等 :
--
Orbit Information
数据来源 国际轨道数据 AOE轨道数据
星历时间 2026-06-16T14:39:18+0800
5小时前
查看轨道信息
2026-06-15T04:00:00+0800
1天前
查看轨道信息
半长轴 7155.807km 7155.809km
偏心率 0.0002574 0.0002773
轨道倾角 86.396° 86.397°
近地点辐角 82.649° 84.699°
升交点赤经 88.810° 89.414°
平近点角 277.500° 24.721°
近地点 775.828km 775.687km
远地点 779.512km 779.657km
周期 100.403分钟 100.403分钟
每日圈数 14.342171 14.342165
Detailed Information
平衡模式:
三轴稳定
覆盖范围:
全球
运营商:
铱星通信公司
运营商所在国:
美国
制造商(研发单位):
阿莱尼亚宇航公司
制造商所在国:
意大利
使用方式:
暂无
Satellite Introduction
铱星(Iridium)是由共66个运作中的通信卫星组成的卫星通信系统。这个系统原本规划77个通信卫星,所以用原子序数为77的铱元素来命名。铱卫星允许人们使用手持型电子设备进行全球性的语音及数据通讯。该卫星仍在工作。
2D Orbit Map
3D Orbit Map
Orbit Altitude Analysis Chart
Orbit Inclination Analysis Chart
Orbit Comprehensive Analysis Chart
View Comprehensive Chart